Location: Excel
(51.3833°N, 110.5667°W)
Time: 20:47:25
(UTC+00:00)

Envisat - Pass Details

Date: 02 December 2021
Orbit: 764 x 766 km, 98.2° (Epoch: 26 January)

Event Time Altitude Azimuth Distance (km) Brightness Sun altitude
Rises 11:45:35 0° 20° (NNE) 3,247 6.5 -30.4°
Reaches altitude 10° 11:48:06 10° 30° (NNE) 2,316 5.8 -30.0°
Maximum altitude 11:52:45 35° 95° (E) 1,234 4.5 -29.2°
Drops below altitude 10° 11:57:22 10° 161° (SSE) 2,299 5.7 -28.5°
Sets 11:59:51 0° 170° (S) 3,220 6.4 -28.1°
